Regional Weather Roundup
Issued by NWS

Home | Current Version | Previous Version | Graphics & Text | Print | Product List | Glossary On
Versions: 1 2 3 4 5 6 7 8 9 10 11 12 13 14 15 16 17 18 19 20 21 22 23 24 25 26 27 28 29 30 31 32 33 34 35 36 37 38 39 40 41 42 43 44 45 46 47 48 49 50
000
ASUS43 KFSD 211902
RWRSD

WEATHER ROUNDUP FOR SOUTH DAKOTA
NATIONAL WEATHER SERVICE SIOUX FALLS SD
200 PM CDT SAT APR 21 2018

NOTE: "FAIR" INDICATES FEW OR NO CLOUDS BELOW 12,000 FEET WITH NO
SIGNIFICANT WEATHER AND/OR OBSTRUCTIONS TO VISIBILITY.


SDZ001>005-009-010-012>017-212000-
NORTHWEST AND NORTH CENTRAL SOUTH DAKOTA

CITY           SKY/WX    TMP DP  RH WIND       PRES   REMARKS
BUFFALO          N/A     59  35  40 S24G30    30.05F
FAITH            N/A     50  39  66 SE23G32   30.20F
MOBRIDGE       MOSUNNY   58  40  51 S17       30.23F
$$

SDZ012>016-024>037-041>051-057-063-072>074-212000-
SOUTHWEST AND SOUTH CENTRAL SOUTH DAKOTA

CITY           SKY/WX    TMP DP  RH WIND       PRES   REMARKS
RAPID CTY ARPT PTSUNNY   53  38  56 SE20G28   30.17F
PIERRE         CLOUDY    48  42  80 SE12      30.28F
CUSTER         PTSUNNY   44  33  65 SW5       30.16F
ELLSWORTH AFB  MOSUNNY  N/A N/A N/A SE17G28   30.16F
PHILIP         CLOUDY    48  41  76 S14       30.24F
PINE RIDGE     CLOUDY    40  38  93 S5        30.23F
SPEARFISH      FAIR      55  37  50 N9        30.12F
WINNER         CLOUDY    44  39  82 E8        30.31F
$$

SDZ004>011-016>023-039-040-212000-
NORTHEAST SOUTH DAKOTA

CITY           SKY/WX    TMP DP  RH WIND       PRES   REMARKS
ABERDEEN       SUNNY     59  38  45 S13       30.31F
WATERTOWN      CLOUDY    53  36  52 S14       30.33F
BROOKINGS      CLOUDY    50  35  56 SE8       30.34F
SISSETON         N/A     58  40  51 S13       30.32F
$$

SDZ017-020-022-023-036>040-048>070-212000-
SOUTHEAST SOUTH DAKOTA

CITY           SKY/WX    TMP DP  RH WIND       PRES   REMARKS
SIOUX FALLS    CLOUDY    48  34  58 E7        30.33F
HURON          CLOUDY    45  35  68 MISG      30.33F
CHAMBERLAIN    CLOUDY    47  44  90 CALM      30.32F
MITCHELL       CLOUDY    44  37  76 N6        30.34F
YANKTON        CLOUDY    48  36  63 E6        30.31F
$$

ABBREVIATIONS USED IN REMARKS
   TC - TEMPERATURE IN CELSIUS
  WCI - WIND CHILL INDEX
   HX - HEAT INDEX
  VSB - VISIBILITY




USA.gov is the U.S. government's official web portal to all federal, state and local government web resources and services.